Regional Weather Roundup
Issued by NWS

Home | Current Version | Previous Version | Graphics & Text | Print | Product List | Glossary On
Versions: 1 2 3 4 5 6 7 8 9 10 11 12 13 14 15 16 17 18 19 20 21 22 23 24 25 26 27 28 29 30 31 32 33 34 35 36 37 38 39 40 41 42 43 44 45 46 47 48 49 50
000
ASUS43 KBIS 210501
RWRND

NORTH DAKOTA REGIONAL WEATHER ROUNDUP
NATIONAL WEATHER SERVICE BISMARCK ND
1200 AM CDT TUE APR 21 2015

NOTE: "FAIR" INDICATES FEW OR NO CLOUDS BELOW 12,000 FEET WITH NO
SIGNIFICANT WEATHER AND/OR OBSTRUCTIONS TO VISIBILITY.


NDZ001>003-009>011-017-210600-
NORTHWEST NORTH DAKOTA

CITY           SKY/WX    TMP DP  RH WIND       PRES   REMARKS
WILLISTON      PTCLDY    33  16  49 N5        29.81R
MINOT          MOCLDY    36  17  46 N9        29.79R
MINOT AFB      MOCLDY    37  19  49 N9        29.79R
$$

NDZ018>021-031>035-040>046-210600-
SOUTHWEST NORTH DAKOTA

CITY           SKY/WX    TMP DP  RH WIND       PRES   REMARKS
BISMARCK       PTCLDY    37  12  35 NW7       29.78S
DICKINSON      PTCLDY    31  15  52 W7        29.78F
GARRISON         N/A     37  18  46 N9        29.77S
HETTINGER ARPT CLEAR     28  15  58 CALM      29.83F
$$

NDZ004>008-012>016-024-026-027-054-210600-
NORTHEAST NORTH DAKOTA

CITY           SKY/WX    TMP DP  RH WIND       PRES   REMARKS
GRAND FORKS    CLOUDY    34  26  72 NW22G30   29.64F
GRND FRKS AFB  CLOUDY    34  24  68 N21G31    29.64F
DEVILS LAKE    PTCLDY    34  23  64 N18G24    29.70S
$$

NDZ022-023-025-028>030-036>039-047>053-210600-
SOUTHEAST NORTH DAKOTA

CITY           SKY/WX    TMP DP  RH WIND       PRES   REMARKS
FARGO          CLOUDY    35  29  78 N16       29.64S
JAMESTOWN      CLEAR     33  25  72 N13       29.71R
$$




USA.gov is the U.S. government's official web portal to all federal, state and local government web resources and services.